FW0051 Weather Reports


time (UTC)temp
C
wind
direction
speed
KPH
gust
KPH
rain 1hr
cm
rain 24hr
cm
rain mn
cm
humidity
%
barometer
mb
20260502194517 9 144 4.8 8.0 0.00 0.00 0.00 37 1024.7
20260502193016 8 135 6.4 11.3 0.00 0.00 0.00 40 1024.7
20260502191517 8 141 4.8 8.0 0.00 0.00 0.00 41 1024.8
20260502190017 8 135 9.7 14.5 0.00 0.00 0.00 44 1024.5
20260502181516 8 145 8.0 12.9 0.00 0.00 0.00 59 1024.5
20260502163015 8 200 6.4 11.3 0.00 0.00 0.00 69 1025.0
20260502161515 8 174 9.7 17.7 0.00 0.00 0.00 71 1025.2
20260502151514 9 183 8.0 25.7 0.00 0.00 0.00 66 1025.3
20260502123020 8 165 9.7 22.5 0.00 0.00 0.00 65 1026.2
20260502121519 8 177 9.7 24.1 0.00 0.00 0.00 66 1026.3
20260502114518 8 169 12.9 19.3 0.00 0.00 0.00 65 1027.1
20260502113019 8 177 11.3 19.3 0.00 0.00 0.00 65 1026.6
20260502111518 8 191 6.4 16.1 0.00 0.00 0.00 68 1026.8
20260502110018 7 182 11.3 27.4 0.00 0.00 0.00 65 1026.7
20260502104518 8 182 3.2 14.5 0.00 0.00 0.00 67 1027.0
20260502103019 7 182 4.8 19.3 0.00 0.00 0.00 69 1027.3
20260502101518 7 185 4.8 16.1 0.00 0.00 0.00 67 1027.4
20260502091517 6 210 6.4 14.5 0.00 0.00 0.00 72 1027.6
20260502071517 4 191 9.7 17.7 0.00 0.00 0.00 70 1027.5
20260502070017 4 194 12.9 19.3 0.00 0.00 0.00 70 1027.6
20260502064516 4 192 9.7 16.1 0.00 0.00 0.00 70 1027.6
20260502063015 3 212 12.9 20.9 0.00 0.00 0.00 72 1027.7
20260502061516 3 217 16.1 20.9 0.00 0.00 0.00 73 1027.5
20260502060016 3 219 16.1 20.9 0.00 0.00 0.00 74 1027.5
20260502053015 3 203 8.0 11.3 0.00 0.00 0.00 75 1027.8
20260502051515 3 194 8.0 12.9 0.00 0.00 0.00 71 1027.8
20260502050016 3 195 6.4 11.3 0.00 0.00 0.00 71 1027.9
20260502044515 3 192 9.7 11.3 0.00 0.00 0.00 71 1027.6
20260502043015 3 188 8.0 11.3 0.00 0.00 0.00 71 1027.4
20260502041514 3 185 9.7 12.9 0.00 0.00 0.00 70 1027.4
20260502040016 3 178 12.9 16.1 0.00 0.00 0.00 69 1027.4
20260502034515 3 172 14.5 17.7 0.00 0.00 0.00 68 1027.4
20260502033015 3 178 12.9 17.7 0.00 0.00 0.00 68 1027.3
20260502030015 3 134 8.0 11.3 0.00 0.00 0.00 74 1027.4
20260502024514 4 137 3.2 6.4 0.00 0.00 0.00 74 1027.5
20260502023014 4 121 4.8 8.0 0.00 0.00 0.00 72 1027.8
20260502021514 4 125 6.4 11.3 0.00 0.00 0.00 70 1027.7
20260502020015 5 128 9.7 12.9 0.00 0.00 0.00 70 1027.9
20260502014513 5 131 8.0 12.9 0.00 0.00 0.00 70 1027.9
20260502013013 5 129 9.7 14.5 0.00 0.00 0.00 67 1027.9
20260502011512 5 126 9.7 14.5 0.00 0.00 0.00 65 1028.0
20260502010014 5 115 9.7 14.5 0.00 0.00 0.00 64 1028.1
20260502004513 5 114 9.7 16.1 0.00 0.00 0.00 64 1027.8
20260502003013 5 107 11.3 16.1 0.00 0.00 0.00 63 1027.8
20260502001518 5 102 12.9 14.5 0.00 0.00 0.00 64 1027.8
20260502000019 5 103 14.5 17.7 0.00 0.00 0.00 65 1027.8
20260501234518 5 103 14.5 17.7 0.00 0.00 0.00 66 1027.9
20260501233018 6 104 14.5 16.1 0.00 0.00 0.00 65 1027.8
20260501231518 6 110 12.9 14.5 0.00 0.00 0.00 66 1028.0
20260501230019 6 131 14.5 17.7 0.00 0.00 0.00 62 1027.8
20260501224517 6 141 9.7 14.5 0.00 0.00 0.00 64 1027.9
20260501223018 6 155 11.3 14.5 0.00 0.00 0.00 64 1028.0
20260501221517 6 157 11.3 12.9 0.00 0.00 0.00 65 1028.1
20260501214517 6 149 6.4 11.3 0.00 0.00 0.00 62 1027.9
20260501213018 7 153 9.7 12.9 0.00 0.00 0.00 61 1027.9
20260501211517 7 141 9.7 12.9 0.00 0.00 0.00 62 1027.9
20260501210017 7 131 11.3 14.5 0.00 0.00 0.00 61 1027.9
20260501204517 7 124 8.0 14.5 0.00 0.00 0.00 62 1027.6
20260501203017 7 119 3.2 8.0 0.00 0.00 0.00 62 1027.5
20260501201516 7 106 0.0 6.4 0.00 0.00 0.00 60 1027.3